Temperature
18 18 19 19 19 19 19 19 19 19 19 19 19 18 19 19 18 18 19 18 18 18 18 18 18 18 18 18 18 18 18 18 18 18 18 18 18 18 18 18 17 17 18
18 18 19 19 19 19 19 19 19 19 19 19 19 19 18 18 18 18 18 19 18 18 18 18 18 18 18 18 18 18 18 18 18 18 18 18 18 18 18 18 17 17 17
18 18 18 19 19 19 19 19 19 19 19 19 19 19 19 18 18 18 18 18 18 18 18 18 18 18 18 18 18 18 18 18 18 18 18 17 17 18 18 18 18 17 17
19 18 18 19 19 19 19 19 19 19 19 19 19 19 18 18 18 18 18 18 18 18 18 18 18 18 18 18 18 18 18 18 18 18 17 17 17 18 18 18 17 17 17
18 18 18 19 19 19 19 19 19 19 19 19 18 18 18 18 18 18 18 18 18 18 18 18 18 18 18 18 18 18 18 18 18 17 17 17 17 18 18 18 18 17 17
18 18 18 19 19 19 19 19 19 19 19 18 18 18 18 18 18 18 18 18 18 18 18 18 18 18 18 18 18 18 18 18 18 18 17 17 17 18 18 18 18 18 17
19 18 18 19 19 19 19 19 18 19 19 18 18 18 18 18 18 18 18 18 18 18 18 18 18 18 18 18 18 18 18 18 17 18 17 17 17 18 18 18 17 17 17
19 19 18 19 19 19 19 19 19 19 18 18 18 18 18 18 18 18 18 18 18 18 18 18 18 18 18 18 18 18 18 18 17 18 18 18 18 18 18 17 17 17 17
19 19 18 18 18 19 19 19 19 18 18 18 18 18 18 18 18 18 18 18 18 18 18 18 18 18 18 18 18 18 18 18 18 18 18 18 18 18 18 18 18 17 17
18 19 18 18 18 18 18 19 19 18 18 18 18 18 18 18 18 18 18 18 18 18 18 18 18 18 18 18 18 18 18 18 18 18 18 18 18 18 18 18 18 17 17
18 18 18 18 18 18 18 18 18 18 18 18 18 18 18 18 17 18 18 18 18 18 18 18 18 18 18 18 18 18 18 18 18 18 18 18 18 18 18 18 18 17 17
19 19 18 18 18 18 18 18 18 18 18 18 17 18 18 17 18 18 18 18 18 18 18 18 18 18 18 18 18 18 18 18 18 18 18 18 18 18 18 18 18 17 17
19 19 19 18 18 18 18 18 18 18 18 18 18 18 18 18 18 18 18 18 18 18 18 18 18 18 18 18 18 18 18 18 18 19 18 18 18 18 18 18 18 17 17
19 19 19 18 18 18 18 18 18 18 18 18 18 18 18 18 18 18 18 18 18 18 18 18 18 18 18 18 18 18 18 18 19 18 18 18 18 18 18 18 18 18 17
19 19 19 18 18 18 18 18 18 18 18 18 18 18 18 18 18 18 18 18 18 18 18 18 18 18 18 18 18 18 18 18 18 18 18 18 18 18 18 18 18 18 18
19 19 19 19 19 19 19 18 18 18 18 18 18 18 18 18 18 18 18 18 18 18 18 18 18 18 18 18 18 18 18 18 18 18 18 18 18 18 18 18 18 18 18
19 19 19 19 19 19 19 18 18 18 18 18 18 18 18 18 18 18 18 18 18 18 18 18 18 18 18 18 18 18 18 18 18 18 18 18 18 18 18 18 18 18 18
19 19 19 19 19 19 19 19 18 18 18 18 18 18 18 18 18 18 18 18 18 18 18 18 18 18 18 18 18 18 19 18 18 18 18 18 18 18 18 18 18 18 18
19 19 19 19 19 19 19 19 18 18 18 18 18 18 18 18 18 18 18 18 18 18 18 18 18 18 18 18 19 19 19 19 18 18 18 18 18 18 18 18 18 18 18
20 20 19 19 19 19 19 19 18 18 18 18 18 18 18 18 18 18 18 18 18 18 18 18 18 18 18 18 19 19 19 19 18 18 18 18 18 18 18 18 18 18 18
20 20 20 19 19 19 19 19 19 19 19 18 19 18 18 18 18 18 18 18 18 18 18 18 18 18 18 18 18 19 19 19 19 19 19 19 18 18 18 18 18 18 18
20 20 20 20 19 19 19 19 19 19 19 19 19 18 18 18 18 18 18 18 18 18 18 18 18 18 18 18 18 19 20 20 19 19 19 18 18 18 18 18 18 18 18
21 20 20 20 20 19 19 19 19 19 19 19 19 18 18 18 18 18 18 18 18 18 18 18 18 18 18 18 18 19 20 20 20 20 19 19 18 18 18 18 18 18 18
21 20 20 20 20 20 19 19 19 19 19 19 19 19 19 18 18 18 18 18 18 18 18 18 18 18 18 18 18 18 18 18 19 20 20 19 18 18 18 18 18 18 18
21 21 20 20 20 20 20 19 19 19 19 19 19 19 19 18 18 18 18 18 18 18 18 18 18 18 18 18 18 18 18 18 18 19 20 19 19 19 18 18 18 18 18
21 21 20 20 20 20 20 19 19 19 19 19 19 19 19 19 19 18 18 18 18 18 18 18 18 18 18 18 18 18 18 18 18 19 19 19 19 19 18 18 18 18 18
Wind_Speed
8 11 12 14 15 15 16 16 16 16 16 15 15 15 14 15 14 14 15 14 13 13 13 13 13 12 11 11 11 11 11 11 11 10 10 11 11 11 11 11 10 12 14
10 12 13 14 15 15 15 15 16 16 15 15 14 14 14 14 14 13 13 13 13 13 13 12 12 11 11 11 10 10 10 10 10 9 9 10 11 10 9 8 6 11 13
12 13 14 13 14 14 14 15 15 15 15 14 14 13 13 13 13 13 12 12 12 12 12 11 11 10 10 9 9 9 9 9 8 7 6 8 11 10 9 9 10 11 11
12 12 13 14 13 14 14 14 14 14 14 13 13 13 12 12 12 12 12 12 12 11 11 11 10 9 9 8 8 8 8 7 6 5 4 6 9 11 9 9 9 10 11
12 12 14 13 13 13 13 13 13 13 13 12 12 12 11 12 11 12 11 11 10 10 10 9 9 9 8 8 7 7 7 6 4 5 5 6 8 10 8 9 9 9 10
11 12 14 12 12 12 12 12 12 12 12 12 12 11 10 10 10 10 10 10 9 9 9 8 8 7 7 6 6 6 5 4 6 4 5 5 8 9 8 8 8 8 9
11 12 13 12 11 11 11 11 11 11 11 11 11 10 9 9 9 9 9 9 8 7 7 7 7 6 5 5 4 4 4 3 3 4 5 5 8 9 7 7 8 8 8
10 11 12 11 10 10 10 10 10 10 10 10 10 9 8 8 7 7 7 7 6 6 6 5 5 5 4 4 3 3 3 5 3 3 3 6 10 7 6 6 7 8 8
9 9 10 11 11 10 9 9 9 9 9 9 9 8 8 7 6 6 6 6 5 5 5 4 4 4 3 3 3 3 3 4 3 3 3 5 9 7 6 6 7 7 7
8 8 8 9 9 9 10 9 8 8 7 7 7 7 7 7 6 5 5 6 4 4 4 4 3 3 3 3 3 3 4 7 4 4 3 7 8 6 6 6 7 7 7
8 7 7 7 8 7 8 9 8 8 7 7 8 7 5 4 5 5 6 5 3 3 3 3 3 3 4 6 5 5 7 5 2 2 3 9 7 6 6 6 7 7 7
10 8 6 6 7 6 6 7 6 6 6 4 5 4 4 3 3 3 6 4 3 3 4 4 4 6 7 5 7 8 5 4 2 3 5 9 7 7 7 6 7 7 7
10 8 7 6 6 5 5 5 4 3 4 4 4 3 3 2 3 3 3 4 3 4 2 4 4 2 2 1 2 3 2 3 2 2 6 10 8 8 8 7 7 7 7
9 9 7 6 5 4 3 3 3 3 3 3 4 2 2 1 1 2 1 1 0 1 1 0 0 0 0 1 2 2 3 3 2 1 5 9 9 9 9 9 8 8 8
9 8 7 6 5 4 3 2 3 3 3 3 3 3 1 1 1 1 1 1 1 1 0 0 1 1 1 2 2 2 3 3 3 4 4 10 10 10 10 9 9 9 9
8 8 7 7 6 5 4 3 2 3 3 3 3 2 2 1 1 0 1 0 1 1 1 1 1 1 1 1 2 2 3 3 3 3 3 7 11 11 11 10 10 10 10
9 9 8 8 7 6 5 4 3 3 4 3 2 2 2 2 1 1 1 1 1 1 1 2 2 2 2 2 2 2 3 3 2 3 4 4 7 12 12 11 11 11 11
10 10 9 8 8 7 5 4 4 4 3 3 2 3 3 2 3 3 2 1 1 2 2 1 2 2 1 2 2 2 2 2 3 3 5 5 5 5 11 13 12 11 11
10 10 9 8 7 7 6 5 4 3 3 3 3 4 3 3 3 4 2 1 3 2 2 2 1 2 2 2 3 2 2 2 3 3 3 4 5 5 5 10 13 12 12
10 10 9 9 8 7 6 5 4 4 4 4 4 3 4 4 4 4 3 3 3 2 2 2 2 2 2 3 4 2 3 3 3 3 4 4 5 6 5 5 8 11 13
11 11 10 10 9 7 6 5 5 5 4 4 4 4 5 5 4 4 4 2 3 2 2 3 2 2 2 2 3 3 3 3 3 3 3 3 3 4 5 5 6 6 9
13 12 11 10 9 8 6 5 4 3 3 3 3 3 5 5 5 5 4 4 3 2 3 2 2 3 2 2 3 3 2 2 3 3 3 3 3 3 4 6 6 6 7
13 13 11 11 10 9 8 6 4 4 4 4 4 4 4 5 5 5 5 4 3 4 3 3 2 3 3 2 2 3 3 2 2 2 3 3 3 3 4 4 6 6 7
14 13 11 10 10 9 9 8 8 6 5 4 4 3 4 5 5 5 5 5 5 4 3 4 2 3 4 3 2 2 3 4 4 2 3 2 3 3 4 4 4 5 6
13 12 11 11 10 10 9 9 8 7 6 4 4 4 4 4 5 5 5 5 5 5 4 4 3 4 4 4 3 3 3 3 5 5 4 3 3 3 3 4 3 3 4
12 12 11 11 10 9 10 9 9 8 7 6 5 4 5 4 4 5 5 5 6 5 4 5 5 5 4 5 4 4 3 3 4 4 5 5 4 3 3 3 3 3 4
Wind_Direction
112 111 110 111 111 109 111 112 112 112 111 110 110 110 109 109 108 109 108 107 106 105 104 107 109 109 107 107 105 106 106 108 108 111 114 114 114 114 117 125 134 119 115
119 117 115 112 111 110 110 112 112 112 110 109 109 109 108 108 107 107 108 109 108 107 108 109 111 111 111 111 110 110 111 113 115 118 127 125 119 119 120 119 103 112 123
122 121 119 111 111 109 109 109 111 111 111 109 110 110 107 107 107 107 106 108 108 108 109 109 110 111 110 109 109 110 111 114 117 131 167 135 121 122 123 119 115 123 127
123 121 116 113 111 110 109 109 109 110 109 110 110 109 108 107 107 107 106 105 107 108 109 110 112 112 110 107 106 110 114 116 123 179 166 115 120 121 129 131 133 132 132
119 116 114 116 113 112 111 110 110 109 110 111 112 111 110 108 108 108 107 107 108 110 110 110 113 112 108 105 104 109 117 125 157 213 115 112 110 120 133 138 140 141 139
124 120 116 117 114 114 113 113 112 109 109 109 111 113 113 111 110 109 108 108 107 107 108 111 115 114 111 110 107 110 118 147 209 139 116 123 117 126 137 143 147 149 150
126 120 121 119 117 116 115 114 112 109 109 110 113 114 113 112 110 110 109 109 107 105 107 110 114 116 116 113 111 115 128 206 224 118 127 129 112 128 140 146 153 155 156
127 124 123 122 118 117 117 116 115 113 110 110 115 115 113 113 112 109 111 110 109 108 107 109 118 123 124 119 122 132 157 246 182 128 140 122 114 131 144 149 152 156 158
128 126 130 135 132 129 122 118 116 113 112 112 115 116 117 117 115 113 112 111 108 109 109 111 117 123 133 139 147 155 179 254 240 146 141 118 124 142 152 156 156 158 164
134 130 135 135 134 138 134 127 123 118 115 117 123 122 125 132 132 135 135 110 108 114 116 117 121 139 165 172 171 173 200 232 211 167 141 120 134 155 164 171 169 168 173
144 142 139 138 137 137 133 134 140 139 138 154 145 146 166 140 126 144 97 101 106 119 131 141 160 180 204 189 183 197 218 228 183 181 136 122 149 171 178 180 180 181 184
151 150 147 147 140 139 133 135 147 148 139 145 121 131 131 109 112 115 120 137 135 144 165 169 196 205 222 187 176 204 216 214 214 189 138 139 167 185 188 189 189 191 195
152 155 158 151 146 148 142 143 141 133 133 138 120 123 118 135 145 131 129 154 160 181 162 154 197 209 213 208 225 212 234 243 216 211 141 153 180 195 197 197 197 198 201
156 161 161 154 154 157 146 146 153 145 146 140 135 163 141 122 109 93 105 61 131 118 63 357 215 126 257 232 239 240 237 257 246 227 148 165 189 203 205 206 207 208 209
166 166 164 161 160 165 169 188 156 166 172 157 153 161 182 157 118 109 82 6 323 15 199 275 342 32 292 249 254 234 245 255 250 245 171 173 193 204 209 212 211 214 213
178 175 173 177 176 180 185 187 175 179 181 182 174 173 200 187 139 153 166 146 324 325 342 307 327 288 286 293 270 265 262 253 222 239 229 179 191 200 208 214 216 218 217
183 184 184 184 183 186 189 191 182 198 187 193 176 180 210 211 179 241 223 213 248 278 275 271 301 288 271 258 269 273 257 260 243 233 241 221 197 196 204 213 218 221 221
184 185 190 190 184 187 195 201 194 203 201 207 204 201 210 216 216 247 250 240 246 256 260 260 272 286 289 286 265 271 263 232 243 235 234 226 228 211 197 205 216 222 223
187 187 189 193 190 192 192 198 206 204 214 218 213 224 211 218 220 243 261 275 256 267 287 287 327 294 287 292 265 248 261 247 246 235 237 233 226 235 222 188 204 218 221
189 190 192 193 194 194 193 197 207 216 214 216 223 225 229 227 223 246 239 248 267 268 282 293 299 283 284 284 289 289 265 251 245 241 242 227 222 226 229 216 205 206 210
191 192 193 196 190 193 196 203 206 209 214 215 223 226 235 239 229 239 262 237 262 264 288 291 284 265 271 296 286 273 249 229 236 225 237 246 226 231 229 220 226 226 206
195 195 194 196 194 197 199 207 213 219 224 227 231 225 238 241 239 229 236 252 245 248 250 276 277 287 282 274 293 294 266 207 218 223 219 223 238 230 230 225 221 226 244
197 197 198 198 198 202 202 202 206 210 225 224 220 221 233 241 245 253 246 256 257 257 250 257 264 269 283 273 275 289 295 307 303 209 225 220 236 248 240 233 228 224 231
198 196 196 195 199 200 200 207 213 220 228 232 237 229 233 236 244 245 244 246 255 259 251 253 245 261 265 273 250 259 285 307 289 279 232 216 219 234 248 252 237 223 230
195 192 192 193 198 199 202 205 214 227 230 230 231 227 237 230 235 245 243 242 244 253 254 265 263 261 257 268 272 265 262 258 261 278 285 283 244 235 237 242 252 249 233
189 189 188 189 194 197 201 205 212 223 229 233 234 236 233 226 228 235 242 241 243 247 242 245 248 243 254 262 267 264 265 272 276 273 277 275 274 257 247 248 248 241 237
Height
1538 1538 1538 1539 1540 1541 1542 1542 1543 1544 1545 1546 1547 1548 1549 1549 1550 1551 1552 1553 1554 1555 1555 1556 1557 1558 1559 1560 1560 1561 1562 1562 1563 1563 1564 1564 1564 1565 1565 1566 1566 1567 1567
1539 1540 1540 1542 1543 1543 1544 1545 1546 1547 1547 1548 1549 1550 1551 1552 1553 1553 1554 1555 1556 1556 1557 1558 1559 1560 1560 1561 1562 1562 1563 1564 1564 1565 1565 1566 1566 1566 1567 1567 1568 1568 1568
1541 1542 1543 1544 1545 1546 1547 1547 1548 1549 1550 1551 1552 1553 1553 1554 1555 1555 1556 1557 1557 1558 1559 1560 1560 1561 1562 1562 1563 1564 1564 1565 1565 1566 1567 1568 1567 1567 1568 1568 1568 1569 1570
1543 1545 1546 1546 1547 1548 1549 1550 1551 1552 1552 1553 1554 1555 1555 1556 1557 1558 1558 1558 1559 1560 1560 1561 1562 1562 1563 1564 1564 1565 1565 1566 1566 1567 1569 1570 1570 1569 1569 1569 1570 1570 1571
1545 1547 1547 1548 1549 1550 1551 1552 1553 1554 1554 1555 1556 1557 1558 1558 1559 1560 1560 1560 1561 1561 1562 1563 1563 1564 1564 1565 1565 1566 1566 1567 1568 1569 1571 1571 1570 1570 1570 1570 1571 1571 1572
1547 1549 1549 1550 1551 1552 1553 1554 1555 1556 1556 1557 1558 1559 1560 1560 1561 1561 1562 1562 1563 1563 1564 1564 1565 1565 1566 1566 1567 1567 1568 1568 1569 1571 1572 1572 1572 1570 1571 1571 1572 1572 1573
1549 1551 1551 1552 1553 1554 1555 1556 1557 1558 1558 1559 1560 1561 1561 1562 1563 1563 1563 1564 1564 1565 1565 1565 1566 1566 1567 1567 1568 1568 1569 1569 1571 1572 1572 1573 1572 1571 1572 1572 1572 1573 1573
1551 1552 1553 1553 1554 1556 1557 1558 1558 1559 1560 1561 1561 1562 1563 1564 1564 1565 1565 1565 1566 1566 1566 1567 1567 1567 1568 1568 1569 1569 1570 1570 1572 1573 1573 1573 1572 1572 1572 1572 1573 1573 1574
1552 1554 1555 1556 1556 1557 1558 1559 1560 1561 1562 1562 1563 1564 1564 1565 1565 1566 1566 1567 1567 1567 1567 1568 1568 1568 1569 1569 1570 1570 1570 1571 1573 1573 1574 1573 1572 1572 1572 1572 1573 1573 1574
1553 1555 1556 1558 1559 1560 1561 1561 1562 1562 1563 1564 1564 1565 1565 1566 1567 1567 1568 1568 1568 1568 1568 1568 1569 1569 1569 1570 1570 1570 1571 1571 1573 1574 1574 1573 1572 1572 1572 1572 1573 1574 1574
1554 1556 1557 1559 1560 1562 1563 1562 1563 1564 1564 1565 1566 1566 1567 1569 1569 1569 1569 1569 1569 1569 1569 1569 1570 1570 1570 1570 1570 1570 1571 1573 1573 1574 1573 1572 1571 1572 1572 1572 1573 1573 1574
1554 1556 1558 1560 1561 1563 1564 1564 1565 1566 1566 1567 1568 1568 1569 1569 1570 1570 1569 1570 1570 1570 1570 1570 1570 1570 1571 1572 1571 1571 1572 1573 1573 1573 1572 1571 1571 1571 1571 1572 1573 1573 1574
1555 1557 1559 1560 1562 1563 1564 1565 1566 1567 1567 1568 1568 1569 1569 1570 1571 1571 1571 1571 1571 1571 1572 1571 1571 1572 1572 1572 1572 1572 1572 1573 1572 1573 1572 1570 1570 1571 1571 1572 1572 1573 1573
1555 1557 1559 1560 1562 1563 1564 1565 1566 1567 1568 1569 1568 1569 1570 1571 1571 1571 1571 1572 1572 1572 1571 1572 1571 1571 1571 1571 1571 1571 1571 1572 1572 1572 1570 1570 1570 1570 1570 1571 1571 1572 1572
1556 1558 1559 1561 1561 1563 1563 1565 1566 1567 1568 1569 1569 1569 1570 1571 1571 1571 1571 1571 1571 1571 1571 1571 1571 1571 1571 1571 1571 1571 1571 1570 1570 1570 1570 1569 1569 1569 1569 1570 1570 1571 1571
1556 1558 1559 1560 1562 1563 1564 1565 1566 1567 1568 1569 1569 1570 1570 1571 1571 1571 1571 1570 1571 1571 1571 1571 1571 1570 1571 1570 1570 1570 1570 1570 1569 1569 1569 1568 1568 1568 1568 1569 1569 1570 1570
1555 1557 1559 1560 1561 1562 1564 1565 1566 1567 1568 1569 1570 1570 1570 1571 1570 1570 1571 1570 1570 1570 1570 1570 1570 1570 1570 1570 1569 1569 1569 1568 1568 1568 1568 1568 1567 1567 1567 1567 1568 1568 1568
1555 1556 1558 1560 1561 1562 1564 1565 1566 1567 1568 1568 1569 1569 1570 1570 1570 1570 1570 1570 1570 1570 1570 1569 1569 1569 1569 1569 1568 1568 1568 1567 1567 1566 1567 1567 1567 1567 1566 1566 1566 1566 1567
1554 1555 1557 1559 1560 1562 1563 1565 1566 1566 1567 1568 1569 1569 1569 1569 1569 1569 1569 1569 1569 1569 1569 1569 1568 1568 1568 1567 1567 1567 1567 1566 1565 1566 1565 1565 1565 1565 1565 1564 1564 1564 1565
1552 1554 1556 1558 1559 1561 1562 1564 1565 1566 1567 1567 1568 1568 1568 1569 1568 1569 1569 1568 1569 1568 1568 1567 1566 1566 1566 1566 1566 1566 1565 1565 1564 1564 1564 1564 1563 1563 1563 1563 1563 1563 1563
1550 1552 1554 1556 1558 1559 1561 1563 1564 1565 1566 1567 1567 1567 1567 1567 1567 1567 1568 1567 1567 1567 1567 1567 1566 1566 1566 1565 1565 1565 1564 1564 1563 1562 1562 1562 1562 1562 1561 1561 1561 1561 1561
1548 1550 1552 1554 1556 1558 1559 1561 1562 1564 1565 1566 1566 1565 1566 1566 1566 1567 1566 1566 1566 1566 1565 1565 1564 1565 1565 1564 1564 1564 1563 1563 1561 1561 1561 1560 1560 1560 1560 1560 1559 1559 1559
1545 1547 1550 1552 1554 1556 1558 1560 1561 1562 1563 1564 1564 1564 1564 1564 1564 1565 1565 1565 1565 1565 1565 1563 1563 1563 1563 1563 1563 1563 1562 1561 1561 1560 1559 1559 1558 1558 1558 1558 1557 1557 1557
1543 1545 1547 1549 1551 1553 1555 1557 1559 1560 1561 1562 1562 1562 1562 1562 1562 1563 1562 1562 1562 1563 1562 1562 1562 1561 1561 1562 1561 1560 1561 1560 1560 1558 1558 1557 1556 1556 1556 1556 1556 1555 1554
1540 1542 1545 1547 1549 1551 1552 1554 1556 1558 1559 1560 1560 1560 1560 1560 1560 1560 1560 1560 1560 1561 1560 1560 1559 1559 1560 1560 1560 1559 1559 1558 1558 1558 1556 1556 1555 1554 1554 1553 1553 1553 1552
1537 1540 1542 1544 1545 1548 1549 1551 1553 1555 1556 1557 1557 1558 1558 1558 1558 1558 1558 1558 1558 1558 1558 1557 1557 1557 1557 1557 1557 1557 1557 1557 1556 1555 1554 1554 1553 1553 1552 1551 1551 1550 1550